�N����,����,�~����,�C��,���x,�C��,����,���ϕ���,�ő�u�ԕ���,�ő厞����,���˗�,�I�_���x,�n�����x,�ő啗���N��,DTYPE
"16/11/29","00:10",0.0,6.5,96.5,1018.2,315.8,3.2,4.2,337.9,0.00,6.0,11.1,"00:04:48",1
"16/11/29","00:20",0.0,6.3,96.5,1018.5,306.5,1.8,3.4,303.1,0.00,5.8,11.1,"00:10:56",1
"16/11/29","00:30",0.0,6.1,96.7,1017.8,278.0,1.3,2.1,261.3,0.00,5.7,10.9,"00:27:12",1
"16/11/29","00:40",0.0,6.2,97.0,1017.8,285.3,1.8,2.6,312.3,0.00,5.8,11.1,"00:37:44",1
"16/11/29","00:50",0.0,6.2,97.2,1017.8,308.5,2.1,2.9,322.1,0.00,5.8,10.9,"00:47:04",1
"16/11/29","01:00",0.0,6.1,97.2,1017.5,329.0,2.1,4.0,335.6,0.00,5.7,10.9,"00:51:04",1
"16/11/29","01:10",0.0,5.9,97.3,1017.8,313.4,1.3,2.5,323.9,0.00,5.5,10.8,"01:06:08",1
"16/11/29","01:20",0.0,5.6,97.5,1018.0,314.3,1.1,2.1,315.4,0.00,5.3,10.8,"01:15:52",1
"16/11/29","01:30",0.0,5.5,97.6,1018.0,307.9,2.0,2.9,315.1,0.00,5.2,10.7,"01:29:36",1
"16/11/29","01:40",0.0,5.6,97.9,1017.5,318.7,1.8,2.5,320.2,0.00,5.3,10.9,"01:32:56",1
"16/11/29","01:50",0.0,5.5,98.0,1017.3,313.5,1.5,2.4,326.1,0.00,5.2,10.7,"01:49:20",1
"16/11/29","02:00",0.0,5.6,97.1,1017.3,316.0,1.8,2.6,309.6,0.00,5.2,10.6,"01:53:20",1
"16/11/29","02:10",0.0,5.1,97.9,1017.3,294.2,1.6,2.4,311.3,0.00,4.8,10.7,"02:01:12",1
"16/11/29","02:20",0.0,4.7,98.2,1017.1,298.3,1.3,2.0,306.8,0.00,4.5,10.5,"02:11:12",1
"16/11/29","02:30",0.0,5.1,97.7,1017.5,309.9,1.5,2.5,335.7,0.00,4.8,10.6,"02:24:40",1
"16/11/29","02:40",0.0,5.1,98.4,1017.3,298.9,1.1,2.1,319.3,0.00,4.9,10.7,"02:33:12",1
"16/11/29","02:50",0.0,5.6,97.8,1017.5,314.4,1.3,2.9,312.7,0.00,5.3,10.4,"02:48:00",1
"16/11/29","03:00",0.0,5.4,98.4,1017.5,315.2,1.8,2.6,315.7,0.00,5.2,10.5,"02:51:12",1
"16/11/29","03:10",0.0,5.7,97.7,1017.8,298.5,1.5,1.9,329.1,0.00,5.4,10.4,"03:03:28",1
"16/11/29","03:20",0.0,5.2,98.5,1018.0,280.4,1.5,1.7,266.7,0.00,5.0,10.7,"03:12:48",1
"16/11/29","03:30",0.0,5.3,97.9,1018.0,288.3,1.2,1.8,304.1,0.00,5.0,10.5,"03:22:56",1
"16/11/29","03:40",0.0,5.2,98.8,1017.5,299.3,1.7,2.4,312.1,0.00,5.1,10.4,"03:37:36",1
"16/11/29","03:50",0.0,5.6,98.1,1017.5,304.8,2.1,2.7,312.3,0.00,5.4,10.5,"03:48:32",1
"16/11/29","04:00",0.0,5.7,97.9,1018.2,301.3,2.1,2.5,313.0,0.00,5.4,10.4,"03:57:12",1
"16/11/29","04:10",0.0,5.6,98.8,1018.2,296.9,1.7,2.4,311.2,0.00,5.5,10.3,"04:03:28",1
"16/11/29","04:20",0.0,5.9,98.0,1018.2,299.3,1.1,1.7,293.6,0.00,5.6,10.4,"04:17:12",1
"16/11/29","04:30",0.0,5.5,97.9,1018.2,291.4,1.0,1.4,302.4,0.00,5.2,10.4,"04:23:36",1
"16/11/29","04:40",0.0,5.1,98.8,1018.2,306.3,1.5,2.5,326.7,0.00,5.0,10.4,"04:36:32",1
"16/11/29","04:50",0.0,5.0,98.2,1018.0,300.3,1.7,2.1,313.1,0.00,4.8,10.5,"04:42:24",1
"16/11/29","05:00",0.0,4.9,98.3,1017.8,310.0,1.7,2.6,321.2,0.00,4.7,10.2,"04:57:12",1
"16/11/29","05:10",0.0,4.8,98.2,1018.0,261.1,0.6,2.2,305.4,0.00,4.6,10.3,"05:09:58",1
"16/11/29","05:20",0.0,4.6,98.3,1018.2,300.6,1.7,2.2,315.1,0.00,4.4,10.3,"05:16:56",1
"16/11/29","05:30",0.0,4.8,98.4,1018.0,313.1,1.7,2.5,319.7,0.00,4.6,10.2,"05:23:44",1
"16/11/29","05:40",0.0,5.0,98.3,1018.0,309.6,1.5,2.6,313.9,0.00,4.8,10.1,"05:35:44",1
"16/11/29","05:50",0.0,4.9,98.3,1018.5,294.5,1.3,1.9,312.4,0.00,4.7,10.1,"05:41:20",1
"16/11/29","06:00",0.0,4.9,98.3,1018.7,292.4,1.5,2.0,314.9,0.00,4.7,10.1,"05:52:32",1
"16/11/29","06:10",0.0,4.7,98.3,1018.7,296.1,1.2,1.7,300.4,0.00,4.5,10.1,"06:03:20",1
"16/11/29","06:20",0.0,4.5,98.4,1019.0,306.7,1.1,2.1,315.4,0.00,4.3,10.2,"06:14:08",1
"16/11/29","06:30",0.0,4.6,98.6,1019.0,308.4,1.8,2.8,341.6,0.00,4.4,10.1,"06:22:32",1
"16/11/29","06:40",0.0,4.7,98.6,1019.4,285.3,1.5,1.9,315.0,0.00,4.5,10.0,"06:38:00",1
"16/11/29","06:50",0.0,4.8,98.5,1019.2,285.3,1.3,1.8,258.4,0.00,4.6,10.1,"06:41:04",1
"16/11/29","07:00",0.0,4.9,98.7,1019.4,296.3,1.3,2.1,316.5,0.00,4.8,10.1,"06:59:52",1
"16/11/29","07:10",0.0,5.3,98.7,1019.7,307.1,2.2,2.7,319.3,0.00,5.2,10.1,"07:01:28",1
"16/11/29","07:20",0.0,5.9,98.7,1019.9,321.8,2.0,2.8,320.5,0.00,5.8,10.3,"07:10:56",1
"16/11/29","07:30",0.0,6.2,98.6,1020.1,304.2,1.8,2.8,320.1,0.00,6.0,10.2,"07:28:08",1
"16/11/29","07:40",0.0,6.4,98.5,1020.1,294.3,1.6,2.5,312.5,0.00,6.2,10.0,"07:30:32",1
"16/11/29","07:50",0.0,6.6,98.5,1020.1,325.2,0.8,2.0,318.6,0.00,6.4,9.9,"07:44:16",1
"16/11/29","08:00",0.0,6.8,98.5,1020.1,311.9,1.2,2.1,312.5,0.01,6.6,10.2,"07:59:52",1
"16/11/29","08:10",0.0,7.3,98.5,1020.4,295.7,1.2,2.2,313.5,0.04,7.1,10.2,"08:00:16",1
"16/11/29","08:20",0.0,7.7,98.4,1020.8,265.2,1.2,1.7,252.3,0.05,7.5,10.4,"08:14:24",1
"16/11/29","08:30",0.0,8.0,98.0,1020.8,278.8,1.1,1.6,254.5,0.08,7.7,10.4,"08:25:04",1
"16/11/29","08:40",0.0,8.5,96.5,1020.8,280.8,0.8,1.1,291.8,0.09,8.0,10.5,"08:31:12",1
"16/11/29","08:50",0.0,8.8,95.2,1021.1,255.5,0.7,1.4,258.9,0.09,8.1,10.3,"08:40:48",1
"16/11/29","09:00",0.0,9.1,93.1,1021.5,124.6,0.3,1.0,117.7,0.13,8.1,10.6,"08:59:20",1
"16/11/29","09:10",0.0,9.8,90.4,1021.8,280.2,1.5,3.5,321.8,0.19,8.3,10.8,"09:07:28",1
"16/11/29","09:20",0.0,10.2,88.1,1022.0,285.2,1.8,3.1,316.8,0.24,8.4,10.8,"09:17:52",1
"16/11/29","09:30",0.0,10.5,87.3,1022.5,294.8,1.7,3.4,315.3,0.26,8.5,11.0,"09:24:00",1
"16/11/29","09:40",0.0,11.0,85.8,1022.7,287.2,1.8,3.9,338.2,0.32,8.8,11.1,"09:34:48",1
"16/11/29","09:50",0.0,10.1,94.0,1023.0,315.3,2.5,4.4,351.7,0.26,9.2,11.2,"09:40:24",1
"16/11/29","10:00",0.0,10.5,94.9,1022.7,295.4,1.7,3.5,326.8,0.31,9.8,11.5,"09:50:48",1
"16/11/29","10:10",0.0,10.0,95.1,1022.7,287.9,1.7,3.6,320.8,0.22,9.3,11.6,"10:00:16",1
"16/11/29","10:20",0.0,10.6,95.3,1022.7,291.5,1.7,3.3,337.3,0.34,9.9,11.8,"10:17:20",1
"16/11/29","10:30",0.0,11.2,89.8,1022.5,284.6,2.0,4.3,257.9,0.49,9.6,12.0,"10:23:44",1
"16/11/29","10:40",0.0,10.8,84.6,1022.3,273.2,1.7,3.5,236.5,0.23,8.4,12.0,"10:38:32",1
"16/11/29","10:50",0.0,11.0,82.6,1022.5,291.8,1.5,2.5,337.9,0.08,8.2,12.1,"10:45:44",1
"16/11/29","11:00",0.0,11.0,81.3,1022.3,283.4,1.7,3.6,254.9,0.11,8.0,12.2,"10:59:28",1
"16/11/29","11:10",0.0,11.8,79.4,1021.8,286.6,1.6,3.1,314.2,0.23,8.4,12.3,"11:02:56",1
"16/11/29","11:20",0.0,11.9,75.3,1021.8,277.2,2.2,5.6,333.0,0.31,7.7,12.4,"11:12:40",1
"16/11/29","11:30",0.0,11.6,78.0,1021.5,284.9,1.7,3.9,333.1,0.16,7.9,12.7,"11:24:24",1
"16/11/29","11:40",0.0,11.6,77.5,1021.5,284.1,1.6,4.5,352.0,0.16,7.8,12.4,"11:31:28",1
"16/11/29","11:50",0.0,11.8,75.5,1021.5,278.4,1.5,3.2,274.5,0.17,7.7,12.4,"11:48:00",1
"16/11/29","12:00",0.0,11.6,75.2,1021.3,287.7,1.6,3.2,325.6,0.06,7.4,12.7,"11:54:40",1
"16/11/29","12:10",0.0,11.2,76.9,1021.8,290.3,1.8,3.5,267.4,0.05,7.3,12.6,"12:05:28",1
"16/11/29","12:20",0.0,11.3,77.0,1021.5,299.8,1.7,3.5,324.5,0.10,7.5,12.6,"12:19:52",1
"16/11/29","12:30",0.0,11.2,76.8,1021.3,290.5,2.0,3.9,337.6,0.12,7.3,12.6,"12:25:12",1
"16/11/29","12:40",0.0,12.7,72.9,1021.3,288.6,2.0,3.6,299.1,0.40,8.0,12.7,"12:30:08",1
"16/11/29","12:50",0.0,12.1,72.7,1021.1,280.3,1.7,3.5,243.7,0.28,7.4,12.7,"12:46:56",1
"16/11/29","13:00",0.0,12.0,72.4,1021.3,317.8,2.2,5.2,326.9,0.10,7.2,12.8,"12:53:12",1
"16/11/29","13:10",0.0,11.9,74.6,1021.5,330.3,2.2,4.4,348.1,0.14,7.6,12.6,"13:04:56",1
"16/11/29","13:20",0.0,11.7,75.2,1021.1,341.1,2.1,4.4,329.6,0.15,7.5,13.0,"13:15:04",1
"16/11/29","13:30",0.0,12.0,74.1,1021.1,318.4,1.7,3.6,346.8,0.16,7.6,12.8,"13:23:12",1
"16/11/29","13:40",0.0,11.8,74.6,1021.3,301.3,1.6,2.9,326.2,0.14,7.5,13.0,"13:33:52",1
"16/11/29","13:50",0.0,11.7,75.3,1021.1,291.2,1.7,3.7,245.7,0.13,7.5,12.9,"13:48:40",1
"16/11/29","14:00",0.0,11.8,75.6,1021.1,281.4,1.6,3.2,234.1,0.15,7.7,13.0,"13:52:48",1
"16/11/29","14:10",0.0,12.1,71.4,1021.1,296.0,2.2,5.2,340.7,0.19,7.1,13.0,"14:06:24",1
"16/11/29","14:20",0.0,12.0,70.7,1021.1,319.3,2.0,3.9,334.8,0.14,6.9,13.0,"14:17:04",1
"16/11/29","14:30",0.0,11.8,72.3,1021.3,317.3,2.2,3.9,309.8,0.08,7.0,13.0,"14:20:40",1
"16/11/29","14:40",0.0,11.9,71.5,1021.3,324.1,1.8,3.4,297.6,0.10,7.0,12.9,"14:35:04",1
"16/11/29","14:50",0.0,12.0,72.4,1021.3,330.1,1.7,3.9,342.0,0.10,7.2,12.9,"14:46:16",1
"16/11/29","15:00",0.0,11.8,71.4,1021.5,318.7,2.1,4.4,337.4,0.08,6.8,13.0,"14:52:32",1
"16/11/29","15:10",0.0,11.6,71.9,1021.8,314.6,2.2,3.5,324.4,0.06,6.7,13.1,"15:04:56",1
"16/11/29","15:20",0.0,11.4,74.1,1021.8,313.4,1.8,3.1,328.5,0.04,7.0,13.1,"15:16:40",1
"16/11/29","15:30",0.0,11.1,76.0,1021.8,297.1,1.8,3.5,323.1,0.02,7.1,12.9,"15:26:08",1
"16/11/29","15:40",0.0,10.8,79.0,1021.8,282.3,1.6,2.7,296.4,0.02,7.3,13.0,"15:32:56",1
"16/11/29","15:50",0.0,10.6,80.5,1021.8,276.9,1.7,2.8,250.5,0.02,7.4,12.9,"15:42:40",1
"16/11/29","16:00",0.0,10.3,82.0,1022.0,288.7,1.7,2.6,304.0,0.01,7.4,12.7,"15:59:04",1
"16/11/29","16:10",0.0,10.1,81.8,1022.3,300.5,2.1,4.1,336.0,0.00,7.2,12.8,"16:09:28",1
"16/11/29","16:20",0.0,10.0,84.0,1022.0,293.5,1.6,2.7,337.2,0.00,7.5,12.8,"16:14:58",1
"16/11/29","16:30",0.0,9.7,84.7,1021.8,300.9,1.8,2.6,321.1,0.00,7.3,12.8,"16:24:30",1
"16/11/29","16:40",0.0,9.3,85.8,1021.8,310.2,1.8,2.8,330.2,0.00,7.1,12.6,"16:34:40",1
"16/11/29","16:50",0.0,9.2,86.1,1022.5,312.6,2.2,3.6,323.7,0.00,7.0,12.6,"16:49:44",1
"16/11/29","17:00",0.0,9.3,87.0,1022.7,303.4,1.8,2.6,321.2,0.00,7.3,12.5,"16:50:50",1
"16/11/29","17:10",0.0,9.2,87.4,1023.0,302.8,2.0,2.5,337.2,0.00,7.3,12.4,"17:07:42",1
"16/11/29","17:20",0.0,9.1,86.6,1023.2,317.3,2.2,3.5,331.9,0.00,7.0,12.4,"17:18:38",1
"16/11/29","17:30",0.0,8.8,85.4,1023.4,319.1,2.1,3.2,308.0,0.00,6.5,12.3,"17:25:00",1
"16/11/29","17:40",0.0,8.6,85.3,1023.2,326.7,2.2,2.8,323.6,0.00,6.3,12.3,"17:30:58",1
"16/11/29","17:50",0.0,8.2,86.6,1023.4,322.5,2.3,3.3,335.8,0.00,6.1,12.2,"17:40:16",1
"16/11/29","18:00",0.0,7.8,88.5,1023.4,319.0,2.5,3.3,313.6,0.00,6.1,12.1,"17:58:56",1
"16/11/29","18:10",0.0,7.9,89.4,1023.7,328.2,2.3,3.9,331.1,0.00,6.3,12.0,"18:05:32",1
"16/11/29","18:20",0.0,7.9,89.8,1023.4,312.4,1.7,2.6,328.5,0.00,6.4,12.0,"18:10:08",1
"16/11/29","18:30",0.0,7.5,90.8,1023.7,324.1,1.8,2.8,322.3,0.00,6.1,11.9,"18:22:24",1
"16/11/29","18:40",0.0,6.9,91.8,1023.7,324.3,2.1,3.3,324.0,0.00,5.7,11.9,"18:39:04",1
"16/11/29","18:50",0.0,6.5,92.8,1023.7,305.7,2.0,2.5,311.2,0.00,5.5,11.9,"18:40:40",1
"16/11/29","19:00",0.0,6.3,94.1,1023.9,292.4,1.7,1.9,300.8,0.00,5.5,11.8,"18:52:16",1
"16/11/29","19:10",0.0,6.8,95.2,1024.1,318.7,2.6,3.9,328.7,0.00,6.1,11.6,"19:04:16",1
"16/11/29","19:20",0.0,7.3,94.3,1024.1,318.0,2.6,3.3,333.0,0.00,6.5,11.6,"19:15:06",1
"16/11/29","19:30",0.0,7.4,93.5,1024.4,322.7,2.5,3.5,326.7,0.00,6.5,11.7,"19:24:16",1
"16/11/29","19:40",0.0,7.5,93.4,1024.1,325.7,2.1,2.8,336.7,0.00,6.5,11.7,"19:31:44",1
"16/11/29","19:50",0.0,7.6,93.0,1024.4,326.4,2.2,2.9,333.5,0.00,6.6,11.3,"19:42:28",1
"16/11/29","20:00",0.0,7.5,92.8,1024.6,320.1,2.5,3.2,322.6,0.00,6.5,11.4,"19:59:48",1
"16/11/29","20:10",0.2,7.6,92.6,1024.6,324.1,3.1,3.9,315.6,0.00,6.5,11.6,"20:01:38",1
"16/11/29","20:20",0.0,7.7,92.4,1025.1,322.2,2.6,3.6,324.6,0.00,6.6,11.3,"20:10:24",1
"16/11/29","20:30",0.0,7.7,92.3,1024.9,313.9,2.3,3.2,327.4,0.00,6.6,11.5,"20:23:04",1
"16/11/29","20:40",0.0,7.5,92.4,1025.1,314.0,2.1,3.1,325.7,0.00,6.4,11.4,"20:34:56",1
"16/11/29","20:50",0.0,7.1,92.6,1025.1,316.1,2.2,2.7,338.2,0.00,6.0,11.3,"20:43:56",1
"16/11/29","21:00",0.0,6.7,93.5,1025.1,325.7,1.8,2.8,308.3,0.00,5.8,11.4,"20:59:58",1
"16/11/29","21:10",0.0,6.4,94.5,1024.9,306.5,2.2,3.5,316.4,0.00,5.6,11.0,"21:00:08",1
"16/11/29","21:20",0.0,6.2,95.2,1024.9,306.7,1.5,3.4,322.2,0.00,5.5,11.3,"21:17:34",1
"16/11/29","21:30",0.0,6.2,96.1,1025.1,312.7,2.1,2.6,322.4,0.00,5.7,11.3,"21:29:08",1
"16/11/29","21:40",0.0,6.3,96.6,1025.6,310.4,2.2,2.9,318.9,0.00,5.8,11.1,"21:37:32",1
"16/11/29","21:50",0.0,6.4,97.0,1025.3,280.8,1.5,2.2,284.7,0.00,6.0,11.1,"21:49:22",1
"16/11/29","22:00",0.0,6.6,97.4,1025.1,300.7,2.2,3.1,315.4,0.00,6.3,11.2,"21:52:12",1
"16/11/29","22:10",0.0,6.7,97.4,1025.3,318.1,2.0,2.7,313.8,0.00,6.4,11.2,"22:00:24",1
"16/11/29","22:20",0.0,6.9,97.4,1025.1,302.9,2.2,3.4,322.1,0.00,6.6,11.0,"22:17:08",1
"16/11/29","22:30",0.0,7.0,97.4,1025.1,290.9,1.6,2.2,322.7,0.00,6.7,11.1,"22:20:08",1
"16/11/29","22:40",0.0,7.0,97.4,1025.1,293.8,1.7,2.6,310.5,0.00,6.7,11.1,"22:34:58",1
"16/11/29","22:50",0.0,7.1,97.3,1025.3,308.5,1.7,3.2,334.0,0.00,6.7,11.0,"22:42:00",1
"16/11/29","23:00",0.0,7.2,97.2,1025.1,317.9,1.6,2.4,322.3,0.00,6.8,11.2,"22:52:48",1
"16/11/29","23:10",0.0,7.2,97.3,1025.6,302.2,1.6,2.4,316.1,0.00,6.8,11.1,"23:06:48",1
"16/11/29","23:20",0.0,7.2,97.4,1025.6,301.8,1.6,2.5,338.5,0.00,6.9,11.2,"23:19:58",1
"16/11/29","23:30",0.0,7.2,97.4,1026.0,309.6,1.6,2.5,326.9,0.00,6.9,11.1,"23:20:18",1
"16/11/29","23:40",0.0,7.2,97.4,1025.8,310.7,1.5,1.9,322.3,0.00,6.9,11.2,"23:35:44",1
"16/11/29","23:50",0.0,7.2,97.3,1025.8,315.2,1.7,2.6,328.3,0.00,6.8,11.1,"23:42:30",1
"16/11/29","24:00",0.0,7.2,97.2,1025.8,299.9,1.2,1.7,303.1,0.00,6.8,10.9,"23:56:32",1
